DW2806 Weather Reports


Display with metric or nautical units.
time (UTC)temp
F
wind
direction
speed
MPH
gust
MPH
rain 1hr
in
rain 24hr
in
rain mn
in
humidity
%
barometer
mb
20260504200037 72 14 1.0 7.0 0.00 0.00 0.00 30 1025.7
20260504194537 73 18 0.0 8.0 0.00 0.00 0.00 30 1025.7
20260504193035 73 284 1.0 12.0 0.00 0.00 0.00 31 1025.7
20260504191534 73 281 2.0 8.0 0.00 0.00 0.00 30 1025.7
20260504190042 73 320 0.0 7.0 0.00 0.00 0.00 31 1025.7
20260504184535 74 271 1.0 8.0 0.00 0.00 0.00 29 1025.7
20260504183034 74 27 0.0 8.0 0.00 0.00 0.00 30 1025.7
20260504181529 73 347 1.0 10.0 0.00 0.00 0.00 30 1025.7
20260504180028 73 341 0.0 5.0 0.00 0.00 0.00 31 1025.7
20260504174526 72 42 6.0 12.0 0.00 0.00 0.00 31 1025.7
20260504173024 72 297 2.0 13.0 0.00 0.00 0.00 32 1025.7
20260504171523 72 32 0.0 10.0 0.00 0.00 0.00 32 1025.7
20260504081531 43 33 0.0 0.0 0.00 0.00 0.00 70 1025.7
20260504050116 36 33 0.0 0.0 0.00 0.00 0.00 86 1025.7
20260504044559 36 33 0.0 0.0 0.00 0.00 0.00 85 1025.7
20260504043108 36 33 0.0 0.0 0.00 0.00 0.00 84 1025.7
20260504041556 36 33 0.0 0.0 0.00 0.00 0.00 84 1025.7
20260504040059 36 33 0.0 0.0 0.00 0.00 0.00 83 1025.7
20260504034557 37 33 0.0 0.0 0.00 0.00 0.00 81 1025.7
20260504033057 37 33 0.0 0.0 0.00 0.00 0.00 81 1025.7
20260504031557 37 33 0.0 0.0 0.00 0.00 0.00 78 1025.7
20260504030049 38 33 0.0 0.0 0.00 0.00 0.00 78 1025.7
20260504024548 38 33 0.0 0.0 0.00 0.00 0.00 76 1025.7
20260504023046 39 33 0.0 0.0 0.00 0.00 0.00 75 1025.7
20260504021544 40 33 0.0 0.0 0.00 0.00 0.00 73 1025.7
20260504020040 40 33 0.0 0.0 0.00 0.00 0.00 72 1025.7
20260504014550 41 33 0.0 0.0 0.00 0.00 0.00 68 1025.7
20260504013040 42 33 0.0 0.0 0.00 0.00 0.00 67 1025.7
20260504011531 43 33 0.0 0.0 0.00 0.00 0.00 64 1025.7
20260504010031 45 33 0.0 0.0 0.00 0.00 0.00 59 1025.7
20260504004531 46 33 0.0 0.0 0.00 0.00 0.00 57 1025.7
20260504003031 47 33 0.0 0.0 0.00 0.00 0.00 55 1025.7
20260504001530 48 33 0.0 0.0 0.00 0.00 0.00 53 1025.7
20260504000040 49 33 0.0 0.0 0.00 0.00 0.00 51 1025.7
20260503234529 50 33 0.0 5.0 0.00 0.00 0.00 48 1025.7
20260503233029 51 33 0.0 4.0 0.00 0.00 0.00 45 1025.7
20260503231528 51 79 1.0 6.0 0.00 0.00 0.00 45 1025.7
20260503230033 52 68 0.0 6.0 0.00 0.00 0.00 44 1025.7
20260503224535 52 45 2.0 6.0 0.00 0.00 0.00 44 1025.7
20260503223026 52 88 0.0 9.0 0.00 0.00 0.00 44 1025.7
20260503221525 53 64 1.0 8.0 0.00 0.00 0.00 44 1025.7
20260503220027 53 70 1.0 6.0 0.00 0.00 0.00 44 1025.7
20260503214531 53 48 1.0 5.0 0.00 0.00 0.00 44 1025.7
20260503213029 53 34 3.0 8.0 0.00 0.00 0.00 43 1025.7
20260503211523 54 83 1.0 6.0 0.00 0.00 0.00 44 1025.7
20260503210039 54 37 3.0 6.0 0.00 0.00 0.00 43 1025.7
20260503204524 54 75 2.0 7.0 0.00 0.00 0.00 44 1025.7
20260503203023 54 83 2.0 8.0 0.00 0.00 0.00 45 1025.7
20260503201527 54 66 0.0 7.0 0.00 0.00 0.00 47 1025.7